| time (UTC) | temp C | wind direction | speed KPH | gust KPH | rain 1hr cm | rain 24hr cm | rain mn cm | humidity % | barometer mb |
| 20260901030541 | 22 | 0 | 0.0 | 0.0 | 0.00 | 0.20 | 0.20 | 97 | 1013.4 |
| 20260901030054 | 22 | 0 | 0.0 | 0.0 | 0.00 | 0.20 | 0.20 | 97 | 1013.2 |
| 20260901025538 | 22 | 0 | 0.0 | 0.0 | 0.00 | 0.20 | 0.20 | 97 | 1013.2 |
| 20260901025040 | 22 | 0 | 0.0 | 0.0 | 0.00 | 0.20 | 0.20 | 97 | 1013.3 |
| 20260901024553 | 23 | 0 | 0.0 | 0.0 | 0.00 | 0.20 | 0.20 | 96 | 1013.3 |
| 20260901024035 | 23 | 0 | 0.0 | 0.0 | 0.00 | 0.20 | 0.20 | 96 | 1013.3 |
| 20260901023535 | 23 | 0 | 0.0 | 0.0 | 0.00 | 0.20 | 0.20 | 96 | 1013.3 |
| 20260901023054 | 23 | 0 | 0.0 | 0.0 | 0.00 | 0.20 | 0.20 | 95 | 1013.3 |
| 20260901022536 | 23 | 0 | 0.0 | 0.0 | 0.00 | 0.20 | 0.20 | 95 | 1013.3 |
| 20260901022034 | 23 | 0 | 0.0 | 0.0 | 0.00 | 0.20 | 0.20 | 95 | 1013.4 |
| 20260901021555 | 23 | 0 | 0.0 | 0.0 | 0.00 | 0.20 | 0.20 | 94 | 1013.3 |
| 20260901021038 | 23 | 0 | 0.0 | 0.0 | 0.00 | 0.20 | 0.20 | 93 | 1013.2 |
| 20260901020537 | 24 | 0 | 0.0 | 0.0 | 0.00 | 0.20 | 0.20 | 92 | 1013.1 |
| 20260901020057 | 25 | 0 | 0.0 | 1.6 | 0.00 | 0.20 | 0.20 | 93 | 1013.2 |
| 20260901015538 | 25 | 0 | 0.0 | 3.2 | 0.00 | 0.20 | 0.20 | 92 | 1013.1 |
| 20260901015033 | 25 | 0 | 0.0 | 4.8 | 0.00 | 0.20 | 0.20 | 92 | 1013.0 |
| 20260901014554 | 25 | 201 | 0.0 | 4.8 | 0.00 | 0.20 | 0.20 | 92 | 1013.0 |
| 20260901014034 | 25 | 202 | 1.6 | 4.8 | 0.00 | 0.20 | 0.20 | 92 | 1012.8 |
| 20260901013536 | 25 | 202 | 3.2 | 4.8 | 0.00 | 0.20 | 0.20 | 92 | 1012.7 |
| 20260901013107 | 25 | 202 | 1.6 | 4.8 | 0.00 | 0.20 | 0.20 | 92 | 1012.7 |
| 20260901012537 | 25 | 202 | 3.2 | 4.8 | 0.00 | 0.20 | 0.20 | 92 | 1012.7 |
| 20260901012036 | 25 | 202 | 1.6 | 4.8 | 0.00 | 0.20 | 0.20 | 92 | 1012.6 |
| 20260901011554 | 25 | 0 | 0.0 | 4.8 | 0.00 | 0.20 | 0.20 | 92 | 1012.5 |
| 20260901011034 | 25 | 202 | 1.6 | 4.8 | 0.00 | 0.20 | 0.20 | 92 | 1012.5 |
| 20260901010537 | 25 | 202 | 1.6 | 4.8 | 0.00 | 0.20 | 0.20 | 91 | 1012.5 |
| 20260901010105 | 25 | 203 | 1.6 | 4.8 | 0.00 | 0.20 | 0.20 | 91 | 1012.5 |
| 20260901005535 | 26 | 203 | 1.6 | 4.8 | 0.00 | 0.20 | 0.20 | 91 | 1012.3 |
| 20260901005036 | 26 | 202 | 0.0 | 4.8 | 0.00 | 0.20 | 0.20 | 90 | 1012.3 |
| 20260901004559 | 26 | 0 | 0.0 | 0.0 | 0.00 | 0.20 | 0.20 | 90 | 1012.4 |
| 20260901004040 | 26 | 0 | 0.0 | 0.0 | 0.00 | 0.20 | 0.20 | 90 | 1012.4 |
| 20260901003623 | 26 | 0 | 0.0 | 0.0 | 0.00 | 0.20 | 0.20 | 89 | 1012.4 |
| 20260901003052 | 26 | 0 | 0.0 | 0.0 | 0.00 | 0.20 | 0.20 | 89 | 1012.3 |
| 20260901002540 | 26 | 0 | 0.0 | 0.0 | 0.00 | 0.20 | 0.20 | 89 | 1012.6 |
| 20260901002037 | 26 | 0 | 0.0 | 3.2 | 0.00 | 0.20 | 0.20 | 89 | 1012.5 |
| 20260901001548 | 26 | 0 | 0.0 | 3.2 | 0.00 | 0.20 | 0.20 | 88 | 1012.4 |
| 20260901001036 | 26 | 204 | 0.0 | 4.8 | 0.00 | 0.20 | 0.20 | 88 | 1012.5 |
| 20260901000533 | 27 | 204 | 0.0 | 4.8 | 0.00 | 0.20 | 0.20 | 87 | 1012.5 |
| 20260901000104 | 27 | 204 | 0.0 | 3.2 | 0.00 | 0.20 | 0.20 | 87 | 1012.2 |
| 20260831235540 | 27 | 0 | 0.0 | 3.2 | 0.00 | 0.20 | 0.20 | 86 | 1012.4 |
| 20260831235037 | 27 | 204 | 0.0 | 4.8 | 0.00 | 0.20 | 0.20 | 86 | 1012.3 |
| 20260831234555 | 27 | 0 | 0.0 | 4.8 | 0.00 | 0.20 | 0.20 | 86 | 1012.1 |
| 20260831234037 | 27 | 203 | 0.0 | 6.4 | 0.00 | 0.20 | 0.20 | 85 | 1012.1 |
| 20260831233537 | 27 | 204 | 1.6 | 16.1 | 0.00 | 0.20 | 0.20 | 85 | 1012.1 |
| 20260831233053 | 27 | 0 | 1.6 | 16.1 | 0.00 | 0.20 | 0.20 | 85 | 1012.1 |
| 20260831232536 | 27 | 223 | 1.6 | 9.7 | 0.00 | 0.20 | 0.20 | 84 | 1012.0 |
| 20260831232037 | 27 | 208 | 3.2 | 9.7 | 0.00 | 0.20 | 0.20 | 84 | 1011.9 |
| 20260831231600 | 27 | 198 | 3.2 | 9.7 | 0.00 | 0.20 | 0.20 | 84 | 1011.9 |
| 20260831231036 | 27 | 202 | 4.8 | 9.7 | 0.00 | 0.20 | 0.20 | 84 | 1012.0 |
| 20260831230538 | 27 | 0 | 1.6 | 6.4 | 0.00 | 0.20 | 0.20 | 84 | 1011.9 |
| 20260831230058 | 27 | 213 | 1.6 | 9.7 | 0.00 | 0.20 | 0.20 | 83 | 1011.9 |
| 20260831225536 | 27 | 205 | 1.6 | 9.7 | 0.00 | 0.20 | 0.20 | 83 | 1012.0 |
| 20260831225038 | 27 | 196 | 3.2 | 8.0 | 0.00 | 0.20 | 0.20 | 83 | 1011.9 |
| 20260831224554 | 28 | 208 | 3.2 | 12.9 | 0.00 | 0.20 | 0.20 | 82 | 1012.0 |
| 20260831224036 | 28 | 217 | 3.2 | 12.9 | 0.00 | 0.20 | 0.20 | 81 | 1011.9 |
| 20260831223539 | 28 | 271 | 3.2 | 16.1 | 0.00 | 0.20 | 0.20 | 82 | 1011.8 |
| 20260831223058 | 28 | 222 | 6.4 | 16.1 | 0.00 | 0.20 | 0.20 | 81 | 1011.7 |
| 20260831222536 | 28 | 225 | 6.4 | 12.9 | 0.00 | 0.20 | 0.20 | 81 | 1011.6 |
| 20260831222036 | 28 | 203 | 4.8 | 19.3 | 0.00 | 0.20 | 0.20 | 82 | 1011.7 |
| 20260831221554 | 28 | 0 | 4.8 | 19.3 | 0.00 | 0.20 | 0.20 | 82 | 1011.7 |
| 20260831221036 | 28 | 211 | 8.0 | 19.3 | 0.00 | 0.20 | 0.20 | 81 | 1011.7 |
| 20260831220536 | 28 | 216 | 4.8 | 12.9 | 0.00 | 0.20 | 0.20 | 81 | 1011.8 |
| 20260831220053 | 28 | 205 | 4.8 | 14.5 | 0.00 | 0.20 | 0.20 | 82 | 1012.0 |
| 20260831215536 | 28 | 205 | 6.4 | 19.3 | 0.00 | 0.23 | 0.20 | 82 | 1012.0 |
| 20260831215036 | 28 | 256 | 8.0 | 19.3 | 0.00 | 0.23 | 0.20 | 82 | 1011.9 |
| 20260831214615 | 28 | 208 | 8.0 | 19.3 | 0.00 | 0.23 | 0.20 | 81 | 1011.9 |
| 20260831214037 | 28 | 208 | 8.0 | 17.7 | 0.00 | 0.23 | 0.20 | 83 | 1011.8 |
| 20260831213534 | 28 | 209 | 8.0 | 17.7 | 0.00 | 0.23 | 0.20 | 83 | 1011.9 |
| 20260831213057 | 27 | 219 | 6.4 | 16.1 | 0.00 | 0.23 | 0.20 | 82 | 1012.0 |
| 20260831212537 | 28 | 194 | 4.8 | 12.9 | 0.00 | 0.23 | 0.20 | 83 | 1011.9 |
| 20260831212040 | 28 | 251 | 4.8 | 12.9 | 0.00 | 0.23 | 0.20 | 83 | 1012.0 |
| 20260831211555 | 28 | 202 | 4.8 | 11.3 | 0.00 | 0.23 | 0.20 | 84 | 1012.1 |
| 20260831211036 | 28 | 198 | 3.2 | 9.7 | 0.00 | 0.23 | 0.20 | 85 | 1012.1 |
| 20260831210534 | 27 | 207 | 3.2 | 9.7 | 0.00 | 0.23 | 0.20 | 85 | 1012.0 |
| 20260831210050 | 27 | 275 | 3.2 | 6.4 | 0.00 | 0.23 | 0.20 | 85 | 1012.1 |
| 20260831205536 | 27 | 222 | 1.6 | 4.8 | 0.00 | 0.33 | 0.20 | 85 | 1011.8 |
| 20260831205033 | 27 | 0 | 1.6 | 4.8 | 0.00 | 0.33 | 0.20 | 86 | 1011.6 |
| 20260831204554 | 27 | 0 | 0.0 | 4.8 | 0.00 | 0.33 | 0.20 | 86 | 1011.4 |
| 20260831204037 | 27 | 0 | 0.0 | 3.2 | 0.00 | 0.33 | 0.20 | 86 | 1011.2 |
| 20260831203536 | 27 | 0 | 0.0 | 4.8 | 0.00 | 0.33 | 0.20 | 86 | 1011.3 |
| 20260831203054 | 27 | 0 | 0.0 | 4.8 | 0.00 | 0.33 | 0.20 | 85 | 1011.3 |
| 20260831202536 | 27 | 0 | 0.0 | 4.8 | 0.00 | 0.33 | 0.20 | 84 | 1011.1 |
| 20260831202040 | 27 | 0 | 0.0 | 6.4 | 0.00 | 0.33 | 0.20 | 84 | 1011.2 |
| 20260831201554 | 27 | 183 | 0.0 | 9.7 | 0.00 | 0.33 | 0.20 | 84 | 1011.4 |
| 20260831201041 | 27 | 0 | 1.6 | 9.7 | 0.00 | 0.33 | 0.20 | 84 | 1011.7 |
| 20260831200536 | 27 | 200 | 1.6 | 8.0 | 0.00 | 0.33 | 0.20 | 83 | 1011.9 |
| 20260831200057 | 27 | 249 | 3.2 | 11.3 | 0.00 | 0.33 | 0.20 | 84 | 1012.0 |
| 20260831195537 | 27 | 0 | 3.2 | 11.3 | 0.00 | 0.38 | 0.20 | 84 | 1012.1 |
| 20260831195039 | 27 | 0 | 3.2 | 8.0 | 0.00 | 0.38 | 0.20 | 83 | 1012.0 |
| 20260831194620 | 27 | 212 | 1.6 | 8.0 | 0.00 | 0.38 | 0.20 | 83 | 1011.6 |
| 20260831194038 | 27 | 185 | 4.8 | 8.0 | 0.00 | 0.38 | 0.20 | 82 | 1011.7 |
| 20260831193534 | 27 | 200 | 1.6 | 8.0 | 0.00 | 0.38 | 0.20 | 81 | 1011.8 |
| 20260831193052 | 27 | 200 | 1.6 | 16.1 | 0.00 | 0.38 | 0.20 | 80 | 1011.8 |
| 20260831192534 | 27 | 0 | 1.6 | 16.1 | 0.00 | 0.38 | 0.20 | 80 | 1011.8 |
| 20260831192033 | 28 | 212 | 4.8 | 16.1 | 0.00 | 0.38 | 0.20 | 79 | 1012.0 |
| 20260831191600 | 28 | 236 | 3.2 | 16.1 | 0.00 | 0.38 | 0.20 | 79 | 1011.8 |
| 20260831191042 | 28 | 225 | 3.2 | 17.7 | 0.00 | 0.38 | 0.20 | 78 | 1011.9 |
| 20260831190538 | 28 | 251 | 6.4 | 17.7 | 0.00 | 0.38 | 0.20 | 78 | 1012.0 |
| 20260831190100 | 28 | 210 | 6.4 | 17.7 | 0.00 | 0.38 | 0.20 | 76 | 1011.9 |
| 20260831185537 | 28 | 212 | 8.0 | 14.5 | 0.00 | 0.43 | 0.20 | 75 | 1011.9 |
| 20260831185036 | 29 | 205 | 6.4 | 16.1 | 0.00 | 0.43 | 0.20 | 77 | 1011.8 |
| 20260831184553 | 29 | 232 | 8.0 | 16.1 | 0.00 | 0.43 | 0.20 | 77 | 1011.9 |
| 20260831184036 | 28 | 222 | 4.8 | 17.7 | 0.00 | 0.43 | 0.20 | 77 | 1011.8 |
| 20260831183536 | 28 | 226 | 8.0 | 17.7 | 0.00 | 0.43 | 0.20 | 76 | 1011.8 |
| 20260831183050 | 28 | 207 | 6.4 | 19.3 | 0.00 | 0.43 | 0.20 | 77 | 1012.0 |
| 20260831182539 | 28 | 198 | 6.4 | 24.1 | 0.00 | 0.43 | 0.20 | 75 | 1012.0 |
| 20260831182037 | 28 | 202 | 4.8 | 24.1 | 0.00 | 0.43 | 0.20 | 75 | 1012.0 |
| 20260831181601 | 28 | 229 | 8.0 | 17.7 | 0.00 | 0.43 | 0.20 | 76 | 1012.0 |
| 20260831181036 | 28 | 215 | 6.4 | 17.7 | 0.00 | 0.43 | 0.20 | 75 | 1012.0 |
| 20260831180535 | 29 | 300 | 6.4 | 16.1 | 0.00 | 0.43 | 0.20 | 74 | 1012.1 |
| 20260831180054 | 29 | 219 | 6.4 | 19.3 | 0.00 | 0.43 | 0.20 | 75 | 1011.9 |
| 20260831175536 | 28 | 139 | 4.8 | 19.3 | 0.00 | 0.43 | 0.20 | 77 | 1011.9 |
| 20260831175034 | 28 | 303 | 6.4 | 16.1 | 0.00 | 0.43 | 0.20 | 79 | 1011.9 |
| 20260831174553 | 28 | 209 | 6.4 | 16.1 | 0.00 | 0.43 | 0.20 | 81 | 1011.9 |
| 20260831174033 | 28 | 206 | 6.4 | 17.7 | 0.00 | 0.43 | 0.20 | 79 | 1012.0 |
| 20260831173538 | 27 | 202 | 6.4 | 17.7 | 0.00 | 0.43 | 0.20 | 80 | 1012.2 |
| 20260831173050 | 27 | 219 | 6.4 | 20.9 | 0.00 | 0.43 | 0.20 | 78 | 1012.1 |
| 20260831172534 | 28 | 205 | 4.8 | 20.9 | 0.00 | 0.43 | 0.20 | 80 | 1012.2 |
| 20260831172036 | 27 | 222 | 9.7 | 19.3 | 0.00 | 0.43 | 0.20 | 81 | 1012.3 |
| 20260831171558 | 27 | 180 | 8.0 | 20.9 | 0.00 | 0.43 | 0.20 | 82 | 1012.3 |
| 20260831171038 | 27 | 219 | 4.8 | 20.9 | 0.00 | 0.43 | 0.20 | 80 | 1012.4 |
| 20260831170538 | 27 | 242 | 6.4 | 19.3 | 0.00 | 0.43 | 0.20 | 80 | 1012.4 |
| 20260831170055 | 27 | 206 | 9.7 | 20.9 | 0.00 | 0.43 | 0.20 | 81 | 1012.5 |
| 20260831165537 | 27 | 233 | 4.8 | 20.9 | 0.00 | 0.43 | 0.20 | 81 | 1012.6 |
| 20260831165036 | 26 | 207 | 11.3 | 19.3 | 0.00 | 0.43 | 0.20 | 80 | 1012.6 |
| 20260831164552 | 26 | 230 | 6.4 | 20.9 | 0.00 | 0.43 | 0.20 | 81 | 1012.6 |
| 20260831164036 | 27 | 216 | 8.0 | 20.9 | 0.00 | 0.43 | 0.20 | 81 | 1012.7 |
| 20260831163536 | 27 | 223 | 8.0 | 19.3 | 0.00 | 0.43 | 0.20 | 82 | 1012.7 |
| 20260831163058 | 26 | 203 | 8.0 | 14.5 | 0.00 | 0.43 | 0.20 | 82 | 1012.7 |
| 20260831162537 | 26 | 185 | 6.4 | 22.5 | 0.00 | 0.43 | 0.20 | 82 | 1012.7 |
| 20260831162036 | 26 | 219 | 11.3 | 22.5 | 0.00 | 0.43 | 0.20 | 81 | 1012.7 |
| 20260831161552 | 26 | 192 | 11.3 | 22.5 | 0.00 | 0.43 | 0.20 | 81 | 1012.7 |
| 20260831161037 | 26 | 215 | 9.7 | 19.3 | 0.00 | 0.43 | 0.20 | 82 | 1012.6 |
| 20260831160536 | 26 | 198 | 8.0 | 20.9 | 0.00 | 0.43 | 0.20 | 83 | 1012.5 |
| 20260831160100 | 26 | 215 | 9.7 | 24.1 | 0.00 | 0.43 | 0.20 | 82 | 1012.6 |
| 20260831155538 | 26 | 211 | 6.4 | 24.1 | 0.00 | 0.43 | 0.20 | 84 | 1012.5 |
| 20260831155034 | 26 | 215 | 11.3 | 24.1 | 0.00 | 0.43 | 0.20 | 81 | 1012.7 |
| 20260831154623 | 26 | 213 | 8.0 | 24.1 | 0.00 | 0.43 | 0.20 | 82 | 1012.6 |
| 20260831154036 | 26 | 164 | 9.7 | 24.1 | 0.00 | 0.43 | 0.20 | 81 | 1012.7 |
| 20260831153536 | 25 | 215 | 6.4 | 20.9 | 0.00 | 0.43 | 0.20 | 83 | 1012.6 |
| 20260831153050 | 25 | 205 | 9.7 | 20.9 | 0.00 | 0.43 | 0.20 | 83 | 1012.8 |
| 20260831152539 | 25 | 224 | 6.4 | 14.5 | 0.00 | 0.43 | 0.20 | 83 | 1012.9 |
| 20260831152036 | 25 | 225 | 3.2 | 27.4 | 0.00 | 0.43 | 0.20 | 82 | 1012.9 |
| 20260831151604 | 25 | 205 | 4.8 | 27.4 | 0.00 | 0.43 | 0.20 | 83 | 1013.0 |
| 20260831151033 | 25 | 217 | 11.3 | 25.7 | 0.00 | 0.43 | 0.20 | 82 | 1012.8 |
| 20260831150533 | 25 | 221 | 8.0 | 19.3 | 0.00 | 0.43 | 0.20 | 84 | 1012.8 |
| 20260831150058 | 25 | 198 | 4.8 | 16.1 | 0.00 | 0.43 | 0.20 | 84 | 1012.9 |
| 20260831145538 | 25 | 220 | 6.4 | 17.7 | 0.00 | 0.43 | 0.20 | 84 | 1012.8 |
| 20260831145035 | 25 | 198 | 6.4 | 17.7 | 0.00 | 0.43 | 0.20 | 85 | 1012.8 |
| 20260831144603 | 24 | 205 | 9.7 | 17.7 | 0.00 | 0.43 | 0.20 | 85 | 1012.7 |
| 20260831144034 | 24 | 206 | 6.4 | 19.3 | 0.00 | 0.43 | 0.20 | 86 | 1012.7 |
| 20260831143535 | 24 | 207 | 8.0 | 19.3 | 0.00 | 0.43 | 0.20 | 86 | 1012.7 |
| 20260831143056 | 23 | 206 | 8.0 | 17.7 | 0.00 | 0.43 | 0.20 | 87 | 1012.6 |
| 20260831142534 | 23 | 218 | 9.7 | 17.7 | 0.00 | 0.43 | 0.20 | 86 | 1012.6 |
| 20260831142035 | 23 | 196 | 8.0 | 16.1 | 0.00 | 0.43 | 0.20 | 87 | 1012.7 |
| 20260831141601 | 23 | 231 | 6.4 | 24.1 | 0.00 | 0.43 | 0.20 | 87 | 1012.7 |
| 20260831141033 | 23 | 192 | 8.0 | 24.1 | 0.00 | 0.43 | 0.20 | 87 | 1012.7 |
| 20260831140535 | 23 | 218 | 6.4 | 19.3 | 0.00 | 0.43 | 0.20 | 88 | 1012.7 |
| 20260831140057 | 22 | 138 | 9.7 | 19.3 | 0.00 | 0.43 | 0.20 | 87 | 1012.7 |
| 20260831135536 | 22 | 193 | 8.0 | 25.7 | 0.00 | 0.43 | 0.20 | 88 | 1012.7 |
| 20260831135034 | 22 | 166 | 6.4 | 25.7 | 0.00 | 0.43 | 0.20 | 88 | 1012.8 |
| 20260831134556 | 22 | 195 | 8.0 | 17.7 | 0.00 | 0.43 | 0.20 | 89 | 1012.5 |
| 20260831134033 | 22 | 199 | 6.4 | 19.3 | 0.00 | 0.43 | 0.20 | 89 | 1012.6 |
| 20260831133534 | 22 | 157 | 8.0 | 19.3 | 0.00 | 0.43 | 0.20 | 89 | 1012.7 |
| 20260831133055 | 22 | 220 | 8.0 | 22.5 | 0.00 | 0.43 | 0.20 | 89 | 1012.5 |
| 20260831132536 | 22 | 173 | 8.0 | 22.5 | 0.00 | 0.43 | 0.20 | 89 | 1012.6 |
| 20260831132036 | 22 | 189 | 6.4 | 14.5 | 0.00 | 0.43 | 0.20 | 90 | 1012.5 |
| 20260831131555 | 22 | 167 | 4.8 | 16.1 | 0.00 | 0.43 | 0.20 | 90 | 1012.6 |
| 20260831131034 | 22 | 157 | 6.4 | 16.1 | 0.00 | 0.43 | 0.20 | 90 | 1012.4 |
| 20260831130535 | 22 | 180 | 6.4 | 16.1 | 0.00 | 0.43 | 0.20 | 91 | 1012.5 |
| 20260831130110 | 21 | 190 | 6.4 | 16.1 | 0.00 | 0.43 | 0.20 | 92 | 1012.4 |
| 20260831125533 | 21 | 176 | 4.8 | 16.1 | 0.00 | 0.43 | 0.20 | 92 | 1012.5 |
| 20260831125036 | 21 | 171 | 8.0 | 16.1 | 0.00 | 0.43 | 0.20 | 92 | 1012.4 |
| 20260831124556 | 21 | 208 | 4.8 | 19.3 | 0.00 | 0.43 | 0.20 | 93 | 1012.6 |
| 20260831124036 | 21 | 151 | 8.0 | 19.3 | 0.00 | 0.43 | 0.20 | 93 | 1012.5 |
| 20260831123534 | 21 | 196 | 6.4 | 17.7 | 0.00 | 0.43 | 0.20 | 94 | 1012.7 |
| 20260831123054 | 21 | 186 | 1.6 | 16.1 | 0.00 | 0.43 | 0.20 | 94 | 1012.7 |
| 20260831122537 | 21 | 205 | 6.4 | 16.1 | 0.00 | 0.43 | 0.20 | 95 | 1012.7 |
| 20260831122036 | 21 | 178 | 3.2 | 14.5 | 0.00 | 0.43 | 0.20 | 96 | 1012.7 |
| 20260831121604 | 21 | 180 | 4.8 | 12.9 | 0.00 | 0.43 | 0.20 | 96 | 1012.6 |
| 20260831121035 | 20 | 0 | 4.8 | 12.9 | 0.00 | 0.43 | 0.20 | 97 | 1012.6 |
| 20260831120532 | 21 | 180 | 3.2 | 11.3 | 0.00 | 0.43 | 0.20 | 97 | 1012.5 |
| 20260831120057 | 20 | 176 | 3.2 | 11.3 | 0.00 | 0.43 | 0.20 | 98 | 1012.7 |
| 20260831115535 | 20 | 173 | 3.2 | 14.5 | 0.00 | 0.43 | 0.20 | 98 | 1012.5 |
| 20260831115035 | 20 | 168 | 4.8 | 19.3 | 0.00 | 0.43 | 0.20 | 98 | 1012.7 |
| 20260831114555 | 20 | 173 | 3.2 | 19.3 | 0.00 | 0.43 | 0.20 | 98 | 1012.6 |
| 20260831114033 | 20 | 169 | 6.4 | 12.9 | 0.00 | 0.43 | 0.20 | 98 | 1012.6 |
| 20260831113533 | 20 | 150 | 4.8 | 12.9 | 0.00 | 0.43 | 0.20 | 99 | 1012.7 |
| 20260831113052 | 20 | 170 | 4.8 | 11.3 | 0.03 | 0.43 | 0.20 | 99 | 1012.7 |
| 20260831112536 | 20 | 173 | 3.2 | 11.3 | 0.03 | 0.43 | 0.20 | 99 | 1012.7 |
| 20260831112036 | 20 | 163 | 1.6 | 8.0 | 0.03 | 0.43 | 0.20 | 99 | 1012.8 |
| 20260831111602 | 20 | 168 | 3.2 | 8.0 | 0.03 | 0.43 | 0.20 | 100 | 1012.7 |
| 20260831111035 | 20 | 0 | 3.2 | 8.0 | 0.05 | 0.43 | 0.20 | 100 | 1012.7 |
| 20260831110536 | 20 | 133 | 0.0 | 3.2 | 0.15 | 0.43 | 0.20 | 100 | 1012.7 |
| 20260831110100 | 20 | 107 | 0.0 | 4.8 | 0.15 | 0.43 | 0.20 | 100 | 1012.9 |
| 20260831105539 | 20 | 0 | 0.0 | 6.4 | 0.15 | 0.43 | 0.20 | 100 | 1012.9 |
| 20260831105037 | 20 | 104 | 0.0 | 6.4 | 0.15 | 0.43 | 0.20 | 100 | 1012.8 |
| 20260831104551 | 20 | 0 | 0.0 | 6.4 | 0.18 | 0.43 | 0.20 | 100 | 1012.8 |
| 20260831104034 | 20 | 0 | 0.0 | 6.4 | 0.20 | 0.43 | 0.20 | 100 | 1013.0 |
| 20260831103536 | 20 | 104 | 0.0 | 6.4 | 0.20 | 0.43 | 0.20 | 100 | 1013.0 |
| 20260831103058 | 20 | 0 | 0.0 | 6.4 | 0.18 | 0.41 | 0.18 | 100 | 1013.1 |
| 20260831102535 | 20 | 59 | 3.2 | 6.4 | 0.18 | 0.41 | 0.18 | 99 | 1013.1 |
| 20260831102037 | 20 | 0 | 0.0 | 4.8 | 0.18 | 0.41 | 0.18 | 99 | 1013.2 |
| 20260831101555 | 20 | 156 | 0.0 | 3.2 | 0.18 | 0.41 | 0.18 | 99 | 1013.0 |
| 20260831101037 | 20 | 0 | 0.0 | 0.0 | 0.13 | 0.36 | 0.13 | 99 | 1012.8 |
| 20260831100537 | 20 | 0 | 0.0 | 0.0 | 0.05 | 0.28 | 0.05 | 100 | 1013.1 |
| 20260831100058 | 20 | 0 | 0.0 | 9.7 | 0.05 | 0.28 | 0.05 | 100 | 1013.3 |
| 20260831095533 | 20 | 0 | 1.6 | 9.7 | 0.05 | 0.56 | 0.05 | 100 | 1013.2 |
| 20260831095036 | 20 | 0 | 0.0 | 4.8 | 0.05 | 0.56 | 0.05 | 100 | 1012.8 |
| 20260831094554 | 20 | 0 | 0.0 | 6.4 | 0.03 | 0.53 | 0.03 | 100 | 1013.1 |
| 20260831094033 | 20 | 0 | 1.6 | 6.4 | 0.00 | 0.51 | 0.00 | 100 | 1013.1 |
| 20260831093536 | 20 | 0 | 0.0 | 6.4 | 0.00 | 0.51 | 0.00 | 100 | 1013.0 |
| 20260831093052 | 20 | 0 | 0.0 | 0.0 | 0.00 | 0.51 | 0.00 | 100 | 1013.0 |
| 20260831092536 | 20 | 0 | 0.0 | 0.0 | 0.00 | 0.51 | 0.00 | 100 | 1012.9 |
| 20260831092038 | 20 | 0 | 0.0 | 0.0 | 0.00 | 0.51 | 0.00 | 100 | 1012.7 |
| 20260831091608 | 20 | 0 | 0.0 | 0.0 | 0.00 | 0.51 | 0.00 | 100 | 1012.7 |
| 20260831091036 | 20 | 0 | 0.0 | 0.0 | 0.00 | 0.51 | 0.00 | 100 | 1012.8 |
| 20260831090537 | 20 | 0 | 0.0 | 0.0 | 0.00 | 0.51 | 0.00 | 100 | 1012.8 |
| 20260831090054 | 20 | 0 | 0.0 | 0.0 | 0.00 | 0.51 | 0.00 | 100 | 1012.8 |
| 20260831085537 | 20 | 0 | 0.0 | 0.0 | 0.00 | 1.45 | 0.00 | 100 | 1013.0 |
| 20260831085040 | 20 | 0 | 0.0 | 0.0 | 0.00 | 1.45 | 0.00 | 100 | 1012.9 |
| 20260831084557 | 20 | 0 | 0.0 | 0.0 | 0.00 | 1.45 | 0.00 | 100 | 1012.9 |
| 20260831084035 | 20 | 0 | 0.0 | 0.0 | 0.00 | 1.45 | 0.00 | 100 | 1012.9 |
| 20260831083536 | 20 | 0 | 0.0 | 0.0 | 0.00 | 1.45 | 0.00 | 100 | 1012.9 |
| 20260831083057 | 20 | 0 | 0.0 | 0.0 | 0.00 | 1.45 | 0.00 | 100 | 1013.0 |
| 20260831082539 | 20 | 0 | 0.0 | 0.0 | 0.00 | 1.45 | 0.00 | 100 | 1012.8 |
| 20260831082037 | 20 | 0 | 0.0 | 4.8 | 0.00 | 1.45 | 0.00 | 100 | 1012.8 |
| 20260831081556 | 20 | 0 | 0.0 | 4.8 | 0.00 | 1.45 | 0.00 | 100 | 1012.9 |
| 20260831081036 | 20 | 130 | 0.0 | 6.4 | 0.00 | 1.45 | 0.00 | 100 | 1012.7 |
| 20260831080536 | 20 | 0 | 0.0 | 6.4 | 0.00 | 1.45 | 0.00 | 100 | 1012.8 |
| 20260831080051 | 20 | 0 | 0.0 | 0.0 | 0.00 | 1.45 | 0.00 | 100 | 1012.8 |
| 20260831075536 | 20 | 0 | 0.0 | 0.0 | 0.00 | 1.45 | 0.00 | 100 | 1012.9 |
| 20260831075036 | 19 | 0 | 0.0 | 0.0 | 0.00 | 1.45 | 0.00 | 100 | 1013.1 |
| 20260831074600 | 19 | 0 | 0.0 | 0.0 | 0.00 | 1.45 | 0.00 | 100 | 1013.1 |
| 20260831074036 | 19 | 0 | 0.0 | 0.0 | 0.00 | 1.45 | 0.00 | 100 | 1013.0 |
| 20260831073536 | 19 | 0 | 0.0 | 0.0 | 0.00 | 1.45 | 0.00 | 99 | 1013.2 |
| 20260831073111 | 19 | 0 | 0.0 | 0.0 | 0.00 | 1.45 | 0.00 | 99 | 1013.3 |
| 20260831072538 | 19 | 0 | 0.0 | 0.0 | 0.00 | 1.45 | 0.00 | 99 | 1013.4 |
| 20260831072036 | 19 | 0 | 0.0 | 0.0 | 0.00 | 1.45 | 0.00 | 99 | 1013.5 |
| 20260831071552 | 19 | 0 | 0.0 | 0.0 | 0.00 | 1.45 | 0.00 | 99 | 1013.6 |
| 20260831071036 | 19 | 0 | 0.0 | 0.0 | 0.00 | 1.45 | 0.00 | 99 | 1013.6 |
| 20260831070537 | 20 | 0 | 0.0 | 0.0 | 0.00 | 1.45 | 0.00 | 99 | 1013.7 |
| 20260831065537 | 20 | 0 | 0.0 | 0.0 | 0.00 | 1.45 | 0.00 | 99 | 1013.9 |
| 20260831065037 | 20 | 0 | 0.0 | 0.0 | 0.00 | 1.45 | 0.00 | 99 | 1014.0 |
| 20260831064555 | 20 | 0 | 0.0 | 0.0 | 0.00 | 1.45 | 0.00 | 98 | 1013.9 |
| 20260831064036 | 20 | 0 | 0.0 | 0.0 | 0.00 | 1.45 | 0.00 | 98 | 1014.0 |
| 20260831063537 | 20 | 0 | 0.0 | 0.0 | 0.00 | 1.45 | 0.00 | 98 | 1014.0 |
| 20260831063055 | 20 | 0 | 0.0 | 0.0 | 0.00 | 1.45 | 0.00 | 98 | 1014.1 |
| 20260831062538 | 20 | 0 | 0.0 | 0.0 | 0.00 | 1.45 | 0.00 | 98 | 1014.2 |
| 20260831062038 | 20 | 0 | 0.0 | 0.0 | 0.00 | 1.45 | 0.00 | 98 | 1014.2 |
| 20260831061554 | 20 | 0 | 0.0 | 0.0 | 0.00 | 1.45 | 0.00 | 98 | 1014.1 |
| 20260831061038 | 20 | 0 | 0.0 | 0.0 | 0.00 | 1.45 | 0.00 | 98 | 1014.2 |
| 20260831060536 | 20 | 0 | 0.0 | 0.0 | 0.00 | 1.45 | 0.00 | 98 | 1014.2 |
| 20260831055536 | 20 | 0 | 0.0 | 0.0 | 0.00 | 1.45 | 0.00 | 98 | 1014.2 |
| 20260831055033 | 20 | 0 | 0.0 | 0.0 | 0.00 | 1.45 | 0.00 | 98 | 1014.2 |
| 20260831054558 | 20 | 0 | 0.0 | 0.0 | 0.00 | 1.45 | 0.00 | 98 | 1014.1 |
| 20260831054033 | 20 | 0 | 0.0 | 0.0 | 0.00 | 1.45 | 0.00 | 97 | 1014.1 |
| 20260831053533 | 21 | 0 | 0.0 | 0.0 | 0.00 | 1.45 | 0.00 | 97 | 1014.1 |
| 20260831053052 | 21 | 0 | 0.0 | 0.0 | 0.00 | 1.45 | 0.00 | 97 | 1014.1 |
| 20260831052533 | 21 | 0 | 0.0 | 0.0 | 0.00 | 1.45 | 0.00 | 97 | 1014.0 |
| 20260831052032 | 21 | 0 | 0.0 | 0.0 | 0.00 | 1.45 | 0.00 | 97 | 1014.0 |
| 20260831051558 | 21 | 0 | 0.0 | 0.0 | 0.00 | 1.45 | 0.00 | 97 | 1013.8 |
| 20260831051034 | 21 | 0 | 0.0 | 0.0 | 0.00 | 1.45 | 0.00 | 96 | 1013.8 |
| 20260831050535 | 21 | 0 | 0.0 | 0.0 | 0.00 | 1.45 | 0.00 | 96 | 1013.9 |
| 20260831050058 | 21 | 0 | 0.0 | 0.0 | 0.00 | 1.45 | 0.00 | 96 | 1013.9 |
| 20260831045533 | 21 | 0 | 0.0 | 0.0 | 0.00 | 1.45 | 1.45 | 96 | 1013.9 |
| 20260831045036 | 21 | 0 | 0.0 | 0.0 | 0.00 | 1.45 | 1.45 | 96 | 1013.9 |
| 20260831044601 | 21 | 0 | 0.0 | 0.0 | 0.00 | 1.45 | 1.45 | 96 | 1013.8 |
| 20260831044033 | 21 | 0 | 0.0 | 0.0 | 0.00 | 1.45 | 1.45 | 96 | 1013.8 |
| 20260831043535 | 21 | 0 | 0.0 | 0.0 | 0.00 | 1.45 | 1.45 | 96 | 1013.7 |
| 20260831043100 | 21 | 0 | 0.0 | 0.0 | 0.00 | 1.45 | 1.45 | 95 | 1013.8 |
| 20260831042534 | 21 | 0 | 0.0 | 0.0 | 0.00 | 1.45 | 1.45 | 95 | 1013.7 |
| 20260831042036 | 21 | 0 | 0.0 | 4.8 | 0.00 | 1.45 | 1.45 | 95 | 1013.7 |
| 20260831041643 | 21 | 0 | 0.0 | 4.8 | 0.00 | 1.45 | 1.45 | 95 | 1013.6 |
| 20260831041039 | 21 | 0 | 0.0 | 6.4 | 0.00 | 1.45 | 1.45 | 95 | 1013.7 |
| 20260831040534 | 21 | 0 | 1.6 | 6.4 | 0.00 | 1.45 | 1.45 | 95 | 1013.7 |
| 20260831040058 | 21 | 182 | 0.0 | 4.8 | 0.00 | 1.45 | 1.45 | 95 | 1013.6 |
| 20260831035536 | 22 | 185 | 1.6 | 4.8 | 0.00 | 1.45 | 1.45 | 94 | 1013.8 |
| 20260831035038 | 22 | 0 | 0.0 | 6.4 | 0.00 | 1.45 | 1.45 | 94 | 1013.8 |
| 20260831034601 | 22 | 0 | 0.0 | 12.9 | 0.00 | 1.45 | 1.45 | 94 | 1013.8 |
| 20260831034033 | 22 | 0 | 3.2 | 14.5 | 0.00 | 1.45 | 1.45 | 94 | 1013.7 |
| 20260831033533 | 22 | 169 | 4.8 | 14.5 | 0.00 | 1.45 | 1.45 | 94 | 1013.7 |
| 20260831033052 | 22 | 169 | 6.4 | 14.5 | 0.00 | 1.45 | 1.45 | 94 | 1013.4 |
| 20260831032533 | 22 | 187 | 4.8 | 14.5 | 0.00 | 1.45 | 1.45 | 94 | 1013.6 |
| 20260831032036 | 22 | 164 | 6.4 | 14.5 | 0.00 | 1.45 | 1.45 | 94 | 1013.3 |
| 20260831031557 | 22 | 175 | 4.8 | 11.3 | 0.00 | 1.45 | 1.45 | 94 | 1013.5 |
| 20260831031036 | 22 | 242 | 4.8 | 11.3 | 0.00 | 1.45 | 1.45 | 94 | 1014.0 |